When you browse on this site, cookies collect data to enhance your experience and personalize the content and advertising you see.
Visit our Privacy Policy to learn more. By continuing to use the site, you agree to this use of cookies and data.
  • In United Kingdom
  • List of Countries
  • For 7 days
  • Water Temperature
  • Satellite Maps
  • Weather Map
  • Weather Widgets
  • user-avatar
    Login

    Hourly Weather Goranboy

    Today, 21 May, Tuesday

    Time Temperature Precipitation Wind Pressure Humidity
    00:00 +21°C° 0.4 mm 5 mps 749 mmHg 61%
    01:00 +20°C° 0 mm 5 mps 749 mmHg 61%
    02:00 +20°C° 0 mm 4 mps 749 mmHg 61%
    03:00 +19°C° 0 mm 4 mps 749 mmHg 61%
    04:00 +19°C° 0 mm 3 mps 749 mmHg 60%
    05:00 +20°C° 0 mm 3 mps 750 mmHg 59%
    06:00 +20°C° 0 mm 3 mps 750 mmHg 58%
    07:00 +21°C° 0 mm 3 mps 750 mmHg 55%
    08:00 +21°C° 0 mm 4 mps 751 mmHg 51%
    09:00 +22°C° 0 mm 4 mps 751 mmHg 48%
    10:00 +23°C° 0 mm 5 mps 751 mmHg 44%
    11:00 +26°C° 0 mm 5 mps 751 mmHg 41%
    12:00 +27°C° 0 mm 6 mps 751 mmHg 38%
    13:00 +27°C° 0 mm 6 mps 751 mmHg 37%
    14:00 +28°C° 0 mm 6 mps 751 mmHg 37%
    15:00 +28°C° 0 mm 6 mps 751 mmHg 37%
    16:00 +27°C° 0 mm 6 mps 751 mmHg 39%
    17:00 +27°C° 0 mm 6 mps 751 mmHg 42%
    18:00 +26°C° 0 mm 6 mps 751 mmHg 44%
    19:00 +24°C° 0 mm 6 mps 751 mmHg 46%
    20:00 +22°C° 0 mm 5 mps 752 mmHg 47%
    21:00 +21°C° 0 mm 5 mps 752 mmHg 48%
    22:00 +20°C° 0 mm 5 mps 752 mmHg 50%
    23:00 +19°C° 0 mm 5 mps 752 mmHg 52%

    Tomorrow, 22 May, Wednesday

    Time Temperature Precipitation Wind Pressure Humidity
    00:00 +19°C° 0 mm 5 mps 752 mmHg 54%
    01:00 +18°C° 0 mm 4 mps 752 mmHg 56%
    02:00 +17°C° 0 mm 3 mps 752 mmHg 58%
    03:00 +17°C° 0 mm 2 mps 752 mmHg 60%
    04:00 +17°C° 0 mm 2 mps 752 mmHg 59%
    05:00 +18°C° 0 mm 1 mps 752 mmHg 58%
    06:00 +19°C° 0 mm 1 mps 752 mmHg 58%
    07:00 +20°C° 0 mm 1 mps 751 mmHg 54%
    08:00 +20°C° 0 mm 2 mps 751 mmHg 50%
    09:00 +22°C° 0 mm 3 mps 750 mmHg 46%
    10:00 +24°C° 0 mm 3 mps 750 mmHg 43%
    11:00 +24°C° 0 mm 2 mps 749 mmHg 41%
    12:00 +25°C° 0 mm 2 mps 749 mmHg 39%
    13:00 +26°C° 0 mm 2 mps 748 mmHg 38%
    14:00 +26°C° 0 mm 2 mps 747 mmHg 38%
    15:00 +27°C° 0 mm 2 mps 747 mmHg 37%
    16:00 +26°C° 0.2 mm 2 mps 747 mmHg 41%
    17:00 +26°C° 0.2 mm 2 mps 747 mmHg 44%
    18:00 +25°C° 0.2 mm 2 mps 747 mmHg 48%
    19:00 +24°C° 0.3 mm 2 mps 747 mmHg 53%
    20:00 +24°C° 0.3 mm 3 mps 748 mmHg 57%
    21:00 +22°C° 0.3 mm 3 mps 748 mmHg 62%
    22:00 +22°C° 0 mm 3 mps 748 mmHg 61%
    23:00 +22°C° 0 mm 3 mps 748 mmHg 60%

    Day after tomorrow, 23 May, Thursday

    Time Temperature Precipitation Wind Pressure Humidity
    00:00 +21°C° 0 mm 3 mps 748 mmHg 59%
    01:00 +21°C° 0 mm 4 mps 747 mmHg 58%
    02:00 +20°C° 0 mm 4 mps 747 mmHg 57%
    03:00 +19°C° 0 mm 5 mps 747 mmHg 57%
    04:00 +20°C° 0 mm 5 mps 747 mmHg 58%
    05:00 +20°C° 0 mm 6 mps 747 mmHg 60%
    06:00 +20°C° 0 mm 6 mps 747 mmHg 62%
    07:00 +21°C° 0 mm 6 mps 746 mmHg 57%
    08:00 +23°C° 0 mm 6 mps 746 mmHg 52%
    09:00 +24°C° 0 mm 6 mps 746 mmHg 47%
    10:00 +27°C° 0 mm 6 mps 746 mmHg 43%
    11:00 +28°C° 0 mm 5 mps 745 mmHg 39%
    12:00 +29°C° 0 mm 5 mps 745 mmHg 35%
    13:00 +30°C° 0 mm 5 mps 745 mmHg 33%
    14:00 +32°C° 0 mm 4 mps 745 mmHg 31%
    15:00 +32°C° 0 mm 4 mps 744 mmHg 29%
    16:00 +30°C° 0 mm 5 mps 745 mmHg 29%
    17:00 +29°C° 0 mm 5 mps 745 mmHg 30%
    18:00 +27°C° 0 mm 5 mps 745 mmHg 30%
    19:00 +26°C° 0 mm 4 mps 746 mmHg 30%
    20:00 +25°C° 0 mm 3 mps 746 mmHg 30%
    21:00 +24°C° 0 mm 2 mps 747 mmHg 31%
    22:00 +23°C° 0 mm 2 mps 747 mmHg 35%
    23:00 +22°C° 0 mm 1 mps 748 mmHg 39%

    24 May, Friday

    Time Temperature Precipitation Wind Pressure Humidity
    00:00 +22°C° 0 mm 1 mps 748 mmHg 44%
    01:00 +21°C° 0 mm 1 mps 748 mmHg 47%
    02:00 +20°C° 0 mm 1 mps 748 mmHg 51%
    03:00 +20°C° 0 mm 1 mps 748 mmHg 55%
    04:00 +20°C° 0 mm 1 mps 748 mmHg 54%
    05:00 +20°C° 0 mm 1 mps 748 mmHg 53%
    06:00 +20°C° 0 mm 2 mps 749 mmHg 53%
    07:00 +21°C° 0 mm 2 mps 749 mmHg 48%
    08:00 +23°C° 0 mm 2 mps 748 mmHg 44%
    09:00 +25°C° 0 mm 2 mps 748 mmHg 40%
    10:00 +26°C° 0 mm 2 mps 748 mmHg 38%
    11:00 +27°C° 0 mm 2 mps 748 mmHg 36%
    12:00 +28°C° 0 mm 1 mps 747 mmHg 34%
    13:00 +29°C° 0 mm 1 mps 747 mmHg 33%
    14:00 +29°C° 0 mm 1 mps 747 mmHg 33%
    15:00 +30°C° 0 mm 1 mps 747 mmHg 32%
    16:00 +30°C° 0 mm 1 mps 747 mmHg 34%
    17:00 +29°C° 0 mm 2 mps 747 mmHg 37%
    18:00 +29°C° 0 mm 2 mps 747 mmHg 39%
    19:00 +28°C° 0 mm 2 mps 748 mmHg 43%
    20:00 +27°C° 0 mm 2 mps 748 mmHg 47%
    21:00 +25°C° 0 mm 2 mps 749 mmHg 51%
    22:00 +24°C° 0 mm 3 mps 749 mmHg 54%
    23:00 +22°C° 0 mm 3 mps 749 mmHg 57%

    25 May, Saturday

    Time Temperature Precipitation Wind Pressure Humidity
    00:00 +21°C° 0 mm 4 mps 749 mmHg 60%
    01:00 +21°C° 0 mm 2 mps 749 mmHg 62%
    02:00 +22°C° 0 mm 1 mps 749 mmHg 63%
    03:00 +19°C° 0 mm 0 mps 749 mmHg 64%
    04:00 +20°C° 0 mm 0 mps 749 mmHg 62%
    05:00 +20°C° 0 mm 0 mps 748 mmHg 60%
    06:00 +21°C° 0 mm 0 mps 748 mmHg 59%
    07:00 +22°C° 0 mm 0 mps 748 mmHg 55%
    08:00 +25°C° 0 mm 1 mps 748 mmHg 50%
    09:00 +26°C° 0 mm 1 mps 748 mmHg 46%
    10:00 +28°C° 0 mm 1 mps 747 mmHg 42%
    11:00 +29°C° 0 mm 1 mps 747 mmHg 38%
    12:00 +31°C° 0 mm 1 mps 746 mmHg 35%
    13:00 +32°C° 0 mm 1 mps 746 mmHg 34%
    14:00 +32°C° 0 mm 1 mps 745 mmHg 33%
    15:00 +33°C° 0 mm 1 mps 745 mmHg 32%
    16:00 +33°C° 0 mm 1 mps 745 mmHg 33%
    17:00 +33°C° 0 mm 1 mps 745 mmHg 35%
    18:00 +33°C° 0 mm 1 mps 745 mmHg 36%
    19:00 +31°C° 0 mm 1 mps 745 mmHg 41%
    20:00 +30°C° 0 mm 1 mps 745 mmHg 45%
    21:00 +29°C° 0 mm 1 mps 746 mmHg 49%
    22:00 +28°C° 0 mm 1 mps 745 mmHg 51%
    23:00 +27°C° 0 mm 1 mps 745 mmHg 52%

    26 May, Sunday

    Time Temperature Precipitation Wind Pressure Humidity
    00:00 +26°C° 0 mm 1 mps 745 mmHg 53%
    01:00 +26°C° 0 mm 2 mps 745 mmHg 53%
    02:00 +25°C° 0 mm 2 mps 745 mmHg 53%
    03:00 +25°C° 0 mm 3 mps 745 mmHg 53%
    04:00 +25°C° 0 mm 4 mps 745 mmHg 53%
    05:00 +25°C° 0 mm 5 mps 745 mmHg 52%
    06:00 +25°C° 0 mm 5 mps 745 mmHg 52%
    07:00 +26°C° 0 mm 6 mps 745 mmHg 48%
    08:00 +28°C° 0 mm 6 mps 745 mmHg 43%
    09:00 +30°C° 0 mm 6 mps 745 mmHg 39%
    10:00 +32°C° 0 mm 6 mps 744 mmHg 36%
    11:00 +34°C° 0 mm 6 mps 744 mmHg 32%
    12:00 +35°C° 0 mm 6 mps 744 mmHg 29%
    13:00 +35°C° 0.2 mm 6 mps 744 mmHg 28%
    14:00 +36°C° 0.2 mm 5 mps 743 mmHg 28%
    15:00 +36°C° 0.2 mm 5 mps 743 mmHg 28%
    16:00 +35°C° 0.8 mm 4 mps 744 mmHg 31%
    17:00 +34°C° 0.8 mm 2 mps 744 mmHg 34%
    18:00 +32°C° 0.8 mm 1 mps 745 mmHg 38%
    19:00 +31°C° 0.2 mm 1 mps 745 mmHg 40%
    20:00 +30°C° 0.2 mm 2 mps 746 mmHg 41%
    21:00 +28°C° 0.2 mm 2 mps 747 mmHg 43%
    22:00 +27°C° 0.1 mm 2 mps 747 mmHg 46%
    23:00 +26°C° 0.1 mm 1 mps 747 mmHg 49%
    Show more